Regional Weather Roundup
Issued by NWS

Home | Current Version | Previous Version | Text Only | Print | Product List | Glossary On
Versions: 1 2 3 4 5 6 7 8 9 10 11 12 13 14 15 16 17 18 19 20 21 22 23 24 25 26 27 28 29 30 31 32 33 34 35 36 37 38 39 40 41 42 43 44 45 46 47 48 49 50
000
ASUS43 KDMX 230207
RWRIA

WEATHER ROUNDUP FOR IOWA
NATIONAL WEATHER SERVICE DES MOINES IA
800 PM CST MON DEC 22 2014

NOTE: "FAIR" INDICATES FEW OR NO CLOUDS BELOW 12,000 FEET WITH NO
SIGNIFICANT WEATHER AND/OR OBSTRUCTIONS TO VISIBILITY.

* - THESE STATIONS ARE NOT NWS STATIONS...THUS NOT UNDER NWS
QUALITY CONTROL.  THEY ALSO DO NOT REPORT WEATHER SUCH
AS PRECIPITATION OR FOG.

IAZ001>003-012>014-020>022-031>034-043>046-230300-
   NORTHWEST IOWA

CITY           SKY/WX    TMP DP  RH WIND       PRES   REMARKS
CARROLL *      CLOUDY    37  37 100 E12       29.44F FOG     WCI  30
CHEROKEE *     LGT RAIN  37  37 100 E9        29.46S WCI  31
DENISON *      MIX PCPN  39  39 100 E7        29.42S WCI  34
LE MARS *        N/A     39  39 100 E9        29.45S WCI  33
ORANGE CITY *  LGT RAIN  39  37  93 E7        29.45S WCI  34
SHELDON *      CLOUDY    36  36 100 E13       29.46R FOG     WCI  27
SIOUX CITY     LGT RAIN  39  36  89 NW10      29.45R WCI  32
SPENCER        LGT RAIN  36  33  89 E10       29.48R WCI  28
STORM LAKE *   CLOUDY    36  36 100 E13       29.46S FOG     WCI  27
$$

IAZ055>058-069>071-079>083-090>094-230300-
   SOUTHWEST IOWA

CITY           SKY/WX    TMP DP  RH WIND       PRES   REMARKS
ATLANTIC *     CLOUDY    41  41 100 CALM      29.42S FOG
AUDUBON *      RAIN      39  36  87 E5        29.44S
CLARINDA *     MOCLDY    41  39  93 W12       29.45S
COUNCIL BLFS * MIX PCPN  39  39 100 NW9       29.43S WCI  33
CRESTON *      MIX PCPN  41  41 100 SE5       29.42S
HARLAN  *      CLOUDY    41  41 100 CALM      29.46S FOG
LAMONI         LGT RAIN  42  42 100 SE3       29.42S VSB 1
RED OAK *        N/A     41  41 100 NW10      29.44R
SHENANDOAH *   CLOUDY    41  39  93 NW8G16    29.46S
$$

IAZ047>049-059>061-072>074-084-230300-
   CENTRAL IOWA

CITY           SKY/WX    TMP DP  RH WIND       PRES   REMARKS
AMES           LGT RAIN  37  36  96 E7        29.47S FOG     WCI  32
ANKENY *       CLOUDY    37  37 100 VRB7      29.46F FOG     WCI  32
CHARITON *     CLOUDY    39  39 100 SE8       29.44F FOG     WCI  34
DES MOINES     LGT RAIN  40  37  89 E10       29.45F FOG     WCI  33
GRINNELL*      RAIN      37  37 100 E8        29.48S WCI  31
KNOXVILLE *    MIX PCPN  39  37  93 E7        29.44F WCI  34
MARSHALLTOWN   LGT RAIN  36  36 100 E10       29.48S VSB 1/2 WCI  28
PELLA *        RAIN      39  39 100 E5        29.48F
PERRY *        CLOUDY    39  39 100 E10       29.45F FOG     WCI  32
$$

IAZ004>006-015-016-023>025-035-036-230300-
   NORTH CENTRAL IOWA

CITY           SKY/WX    TMP DP  RH WIND       PRES   REMARKS
ALGONA *       FOG       36  36 100 E12       29.50S VSB 3/4 WCI  27
CLARION *      LGT RAIN  34  34 100 E9        29.49F WCI  26
ESTHERVILLE    MIX PCPN  33  33 100 E12       29.50R FOG     WCI  24
FORT DODGE *   CLOUDY    36  32  87 E9        29.48F WCI  29
MASON CITY     FOG       34  34 100 E13       29.53S VSB 1   WCI  25
FOREST CITY *  FOG       34  34 100 E12       29.51S VSB 1   WCI  25
IOWA FALLS *   LGT RAIN  36  34  93 E10       29.50S VSB 1/2 WCI  28
$$

IAZ007>011-017>019-026>030-037>042-050>054-066-230300-
   NORTHEAST IOWA

CITY           SKY/WX    TMP DP  RH WIND       PRES   REMARKS
CEDAR RAPIDS   LGT RAIN  37  37 100 E9        29.50F VSB 1/2 WCI  30
CHARLES CITY * FOG       34  34 100 E15       29.54S VSB 3/4 WCI  24
CLINTON *      CLOUDY    37  37 100 E12       29.58F WCI  30
DECORAH *      CLOUDY    34  34 100 E13       29.55S FOG     WCI  25
DUBUQUE        FOG       36  36 100 E12       29.55F VSB 3/4 WCI  28
MONTICELLO *   FOG       37  37 100 E7        29.54F VSB 1/4 WCI  32
OELWEIN *      FOG       36  36 100 E12       29.53S VSB 1/4 WCI  27
WATERLOO       LGT RAIN  35  35 100 E10       29.52S VSB 1   WCI  27
$$

IAZ064-065-067-068-078-230300-
   EAST CENTRAL IOWA

CITY           SKY/WX    TMP DP  RH WIND       PRES   REMARKS
DAVENPORT      LGT RAIN  39  38  96 E10       29.54F FOG     WCI  32
IOWA CITY      LGT RAIN  39  39 100 E6        29.53S FOG     WCI  35
MT. PLEASANT * DRIZZLE   41  41 100 E9        29.49F
MUSCATINE *    LGT RAIN  43  41  93 E7        29.52F
QUAD CITIES    CLOUDY    41  39  93 E7        29.53F FOG
$$

IAZ062-063-075>077-085>089-095>099-230300-
   SOUTHEAST IOWA

CITY           SKY/WX    TMP DP  RH WIND       PRES   REMARKS
BURLINGTON     LGT RAIN  43  43 100 SE9       29.49F FOG
FAIRFIELD *    LGT RAIN  41  41 100 E9        29.48F
FORT MADISON * LGT RAIN  45  45 100 E8        29.49F
KEOKUK *       MIX PCPN  45  45 100 SE10      29.47F
OSKALOOSA *    RAIN      39  39 100 E8        29.47F WCI  34
CENTERVILLE *  LGT RAIN  41  41 100 SE5       29.46S
OTTUMWA        RAIN      40  39  97 E8        29.46F FOG     WCI  34
WASHINGTON *   CLOUDY    41  41 100 E10       29.49F FOG
$$

ABBREVIATIONS USED IN REMARKS
   TC - TEMPERATURES IN CELSIUS
  WCI - WIND CHILL INDEX
   HX - HEAT INDEX
  VSB - VISIBILITY
$$



USA.gov is the U.S. government's official web portal to all federal, state and local government web resources and services.